Asheville, NC

5:48 PM EST on December 06, 2019 (GMT -0500)
Asheville Regional

Weather History for KAVL - September, 2019

Change the Weather History Date:

Saturday, September 21, 2019

  Actual Average Record
Temperature  
Mean Temperature 70 °F 65 °F  
Max Temperature 83 °F 75 °F 91 °F (1931)
Min Temperature 56 °F 54 °F 38 °F (1897)
Degree Days  
Heating Degree Days 0 3  
Month to date heating degree days 2 20  
Since 1 July heating degree days 2 22  
Cooling Degree Days 5 2  
Month to date cooling degree days 191 82  
Year to date cooling degree days 1197 839  
Growing Degree Days 18 (Base 50)    
Moisture  
Dew Point 57 °F    
Average Humidity 67    
Maximum Humidity 93    
Minimum Humidity 40    
Precipitation  
Precipitation 0.00 in 0.13 in 1.94 in (1979)
Month to date precipitation 0.40 2.75  
Year to date precipitation 42.11 34.36  
Snow  
Snow 0.00 in 0.00 in 0.00 in ()
Month to date snowfall 0.0 0.0  
Since 1 July snowfall 0.0 0.0  
Since 1 September snowfall 0.0 0.0  
Snow Depth 0.00 in    
Sea Level Pressure  
Sea Level Pressure 30.32 in    
Wind  
Wind Speed 3 mph (NW)    
Max Wind Speed 13 mph    
Max Gust Speed 16 mph    
Visibility 5 miles    
Events Fog    
T = Trace of Precipitation, MM = Missing Value Source: NWS Daily Summary

Daily Weather History Graph

Daily Weather History Graph

Search for Another Location

Airport or City:

Astronomy

Sep. 21, 2019 Rise Set
Actual Time 7:17 AM EDT 7:28 PM EDT
Civil Twilight 6:51 AM EDT 7:54 PM EDT
Nautical Twilight 6:22 AM EDT 8:23 PM EDT
Astronomical Twilight 5:51 AM EDT 8:53 PM EDT
Moon No Moon Rise 2:08 PM EDT (9/21)
Length of Visible Light 13h 02m
Length of Day
12h 11m
Waning Gibbous, 55% of the Moon is Illuminated
Sep 21
Waning Gibbous
Sep 21
Last Quarter
Sep 28
New
Oct 5
First Quarter
Oct 13
Full

Hourly Weather History & Observations

Time (EDT) Temp. Heat Index Dew Point Humidity Pressure Visibility Wind Dir Wind Speed Gust Speed Precip Events Conditions
12:54 AM 61.0 °F - 57.9 °F 90% 30.30 in 10.0 mi Calm Calm - N/A   Clear
1:54 AM 60.1 °F - 57.0 °F 90% 30.30 in 8.0 mi Calm Calm - N/A   Clear
2:54 AM 57.9 °F - 55.9 °F 93% 30.29 in 7.0 mi Calm Calm - N/A   Clear
2:57 AM 57.9 °F - 55.9 °F 93% 30.35 in 1.2 mi Calm Calm - N/A   Partly Cloudy
3:00 AM 57.9 °F - 55.9 °F 93% 30.35 in 0.8 mi Calm Calm - N/A   Mist
3:11 AM 57.0 °F - 55.9 °F 96% 30.35 in 0.2 mi Calm Calm - N/A Fog Fog
3:19 AM 57.0 °F - 55.9 °F 96% 30.34 in 0.5 mi Calm Calm - N/A Fog Fog
3:27 AM 57.9 °F - 55.9 °F 93% 30.34 in 1.0 mi Calm Calm - N/A   Overcast
3:31 AM 57.9 °F - 55.9 °F 93% 30.34 in 2.5 mi Calm Calm - N/A   Overcast
3:38 AM 57.9 °F - 55.9 °F 93% 30.34 in 7.0 mi Calm Calm - N/A   Overcast
3:47 AM 57.9 °F - 55.9 °F 93% 30.34 in 7.0 mi Calm Calm - N/A   Overcast
3:54 AM 57.9 °F - 55.9 °F 93% 30.29 in 6.0 mi Calm Calm - N/A   Overcast
4:13 AM 57.9 °F - 55.9 °F 93% 30.35 in 0.8 mi Calm Calm - N/A   Overcast
4:32 AM 57.0 °F - 55.9 °F 96% 30.35 in 1.2 mi Calm Calm - N/A   Overcast
4:43 AM 57.0 °F - 55.9 °F 96% 30.35 in 0.5 mi Calm Calm - N/A Fog Fog
4:49 AM 57.2 °F - 55.4 °F 94% 30.35 in 1.0 mi Calm Calm - N/A   Overcast
4:50 AM 57.0 °F - 55.0 °F 93% 30.29 in 1.0 mi Calm Calm - N/A   Overcast
5:00 AM 57.0 °F - 55.0 °F 93% 30.35 in 0.5 mi Calm Calm - N/A Fog Fog
5:12 AM 57.0 °F - 55.9 °F 96% 30.35 in 0.2 mi Calm Calm - N/A Fog Fog
5:54 AM 57.0 °F - 55.0 °F 93% 30.31 in 0.2 mi Calm Calm - N/A Fog Fog
6:13 AM 57.0 °F - 55.0 °F 93% 30.37 in 0.2 mi Calm Calm - N/A Fog Fog
6:21 AM 57.0 °F - 55.0 °F 93% 30.38 in 1.0 mi Calm Calm - N/A   Mist
6:54 AM 57.0 °F - 55.0 °F 93% 30.33 in 6.0 mi Calm Calm - N/A   Overcast
7:14 AM 57.0 °F - 55.0 °F 93% 30.38 in 2.5 mi Calm Calm - N/A   Overcast
7:16 AM 57.0 °F - 55.0 °F 93% 30.38 in 1.0 mi Calm Calm - N/A   Overcast
7:20 AM 57.0 °F - 55.9 °F 96% 30.38 in 0.2 mi Calm Calm - N/A Fog Fog
7:28 AM 57.9 °F - 55.9 °F 93% 30.38 in 0.2 mi NW 3.5 mph - N/A Fog Fog
7:54 AM 57.0 °F - 55.9 °F 96% 30.34 in 0.2 mi Calm Calm - N/A Fog Fog
8:18 AM 57.9 °F - 55.9 °F 93% 30.39 in 0.2 mi Calm Calm - N/A Fog Fog
8:28 AM 57.9 °F - 55.9 °F 93% 30.39 in 1.0 mi NNW 4.6 mph - N/A   Overcast
8:37 AM 59.0 °F - 57.0 °F 93% 30.39 in 0.8 mi NW 4.6 mph - N/A   Overcast
8:51 AM 57.2 °F - 57.2 °F 100% 30.40 in 3.0 mi NW 4.6 mph - N/A   Mostly Cloudy
8:54 AM 59.0 °F - 57.0 °F 93% 30.35 in 4.0 mi NNW 4.6 mph - N/A   Mostly Cloudy
9:50 AM 66.2 °F - 57.2 °F 73% 30.39 in 10.0 mi NNW 5.8 mph - N/A   Clear
9:54 AM 66.9 °F - 57.9 °F 73% 30.34 in 10.0 mi NNW 4.6 mph - N/A   Clear
10:54 AM 73.0 °F - 59.0 °F 61% 30.32 in 10.0 mi North 6.9 mph - N/A   Clear
11:54 AM 77.0 °F - 59.0 °F 54% 30.30 in 10.0 mi NNW 5.8 mph - N/A   Clear
12:54 PM 80.1 °F 80.7 °F 59.0 °F 48% 30.28 in 10.0 mi Variable 5.8 mph - N/A   Clear
1:54 PM 78.1 °F - 57.9 °F 50% 30.27 in 10.0 mi Variable 3.5 mph - N/A   Scattered Clouds
2:54 PM 82.0 °F 82.0 °F 57.9 °F 44% 30.25 in 10.0 mi SSE 11.5 mph - N/A   Scattered Clouds
3:54 PM 82.0 °F 81.7 °F 57.0 °F 42% 30.23 in 10.0 mi SSE 9.2 mph - N/A   Partly Cloudy
4:54 PM 82.0 °F 81.4 °F 55.0 °F 39% 30.21 in 10.0 mi Variable 3.5 mph - N/A   Clear
5:54 PM 80.1 °F 80.4 °F 57.0 °F 45% 30.21 in 10.0 mi South 8.1 mph - N/A   Clear
6:54 PM 78.1 °F - 59.0 °F 52% 30.22 in 10.0 mi SSE 5.8 mph - N/A   Clear
7:54 PM 73.9 °F - 60.1 °F 62% 30.22 in 10.0 mi SE 3.5 mph - N/A   Clear
8:54 PM 70.0 °F - 61.0 °F 73% 30.25 in 10.0 mi Calm Calm - N/A   Clear
9:54 PM 66.9 °F - 61.0 °F 81% 30.25 in 10.0 mi Calm Calm - N/A   Clear
10:54 PM 66.0 °F - 61.0 °F 84% 30.25 in 10.0 mi Calm Calm - N/A   Clear
11:54 PM 64.0 °F - 61.0 °F 90% 30.26 in 9.0 mi Calm Calm - N/A   Clear